RH
17 15 15 19 26 26 26 25 31 39 44 57 62 69 72 75 72 70 68 71 71 70 67 69 72 68 61 57 55 48 45 46 39 33 33 36 32 25 25 21 16 15 17 21 20 22 23 26 28
18 16 18 22 27 30 27 29 36 45 53 57 60 66 71 75 78 75 73 72 72 74 73 75 75 73 66 59 53 45 45 44 34 33 40 39 30 31 27 21 17 19 24 23 20 22 25 27 27
20 19 22 25 30 29 29 32 37 46 52 58 58 58 66 69 71 68 70 76 76 76 76 79 79 77 69 63 57 51 55 42 35 39 44 38 36 31 25 21 21 23 25 22 23 24 26 28 28
20 21 22 25 27 27 26 27 35 44 50 50 56 61 69 65 66 68 70 77 82 83 81 84 81 77 73 65 57 58 50 38 39 44 40 38 37 30 28 28 31 29 23 26 26 27 31 33 31
21 21 23 24 28 26 26 37 43 48 52 51 55 68 72 70 70 70 69 77 86 85 85 87 89 88 83 68 68 59 40 43 47 44 46 46 40 39 38 32 28 25 29 30 29 33 33 33 36
22 23 25 29 27 28 32 43 49 55 54 53 60 71 78 73 74 72 74 75 83 82 93 98 95 92 87 76 64 52 42 46 48 48 51 45 41 36 32 31 29 31 33 34 37 38 39 41 44
25 27 31 35 34 34 47 56 62 62 59 63 64 77 81 76 75 73 74 76 78 83 94 99 99 94 83 70 63 47 46 52 55 53 47 44 40 36 33 30 34 37 39 39 44 47 49 50 51
25 30 36 34 36 41 55 62 64 65 69 75 77 81 81 77 78 76 76 76 76 86 97 98 94 94 81 68 52 51 54 58 54 46 43 40 35 35 35 38 38 38 44 46 49 53 56 57 56
30 43 38 39 42 41 56 65 65 65 67 72 73 72 73 80 80 76 74 75 81 92 98 98 93 84 70 62 65 69 71 60 49 44 37 33 31 37 39 41 43 45 47 49 56 54 56 54 56
37 43 37 43 43 49 59 64 63 65 69 74 75 76 78 83 82 80 78 77 84 88 85 94 90 82 80 81 85 77 58 45 35 30 31 39 42 41 44 44 44 51 57 60 60 59 52 50 51
37 46 42 41 42 46 58 62 61 61 66 69 71 78 82 83 81 79 83 86 87 88 90 90 91 91 90 89 72 58 42 40 40 37 36 35 35 38 40 44 56 60 58 51 56 50 47 47 47
40 43 47 44 46 50 53 58 61 53 50 64 74 82 79 77 73 74 88 84 73 89 91 89 88 86 79 66 50 43 39 35 33 31 33 40 46 49 55 59 64 61 55 52 50 51 50 47 42
42 45 46 45 50 52 53 57 60 53 46 66 75 73 74 68 61 70 79 66 66 66 62 64 70 70 59 50 39 34 31 29 34 36 44 55 54 51 54 57 56 53 52 53 52 53 49 47 42
47 46 46 51 54 50 53 58 59 59 42 57 60 56 58 53 50 50 60 59 61 58 58 57 54 45 40 31 31 34 37 45 51 54 56 60 64 61 53 55 54 53 50 53 55 53 51 44 36
48 50 49 50 51 53 49 54 55 53 46 48 56 57 54 42 40 47 47 47 50 57 61 62 60 55 54 50 49 51 53 58 59 58 58 68 70 57 55 56 54 54 52 56 58 53 46 37 37
45 48 52 50 50 52 50 52 53 49 40 43 55 55 53 45 45 46 42 46 50 54 55 53 52 52 52 47 46 49 51 56 60 60 59 58 53 53 52 52 54 56 57 58 56 44 39 40 41
46 43 46 48 50 51 49 51 56 50 41 40 48 49 50 46 45 47 45 46 50 50 50 49 47 47 46 42 42 48 53 64 63 62 54 51 49 48 53 52 54 56 59 57 45 40 44 45 43
49 48 44 50 51 50 50 49 56 53 47 41 41 42 46 46 46 47 47 43 45 47 45 46 45 46 44 42 47 55 64 70 63 53 53 50 49 50 52 53 54 57 57 47 42 44 45 45 42
49 52 46 47 46 45 45 45 50 57 53 48 43 43 44 46 47 47 46 43 40 40 40 45 50 56 52 48 55 63 64 63 62 60 59 53 51 51 53 53 57 54 47 44 45 46 46 45 40
47 45 51 49 44 42 44 46 47 53 49 46 44 45 46 46 47 46 44 44 42 41 41 46 52 59 58 53 55 58 56 60 61 60 60 54 51 54 56 54 53 46 44 45 47 48 50 50 51
45 45 49 53 50 46 44 44 44 45 49 47 46 43 49 48 48 47 45 43 44 42 43 45 48 55 58 53 53 54 60 61 60 62 58 53 55 57 54 50 47 45 46 47 51 56 59 61 63
47 43 44 49 48 46 43 43 43 42 42 43 44 46 50 42 44 48 50 54 57 54 53 53 54 59 62 58 53 52 55 58 61 60 58 56 58 55 51 49 48 49 51 56 60 66 69 75 81
46 52 49 46 48 45 41 41 39 39 40 40 45 49 50 55 51 48 52 54 60 61 62 62 58 61 71 62 56 55 54 64 72 72 65 68 72 60 53 56 62 64 64 64 74 84 85 83 68
48 49 52 53 52 52 46 45 40 36 34 37 42 42 49 52 50 49 52 65 71 72 71 66 64 69 72 68 58 60 59 66 73 79 75 75 75 68 71 73 74 73 73 78 86 91 96 85 64
47 51 62 60 64 57 52 52 42 39 37 38 39 41 38 38 45 48 51 59 64 71 73 65 69 68 62 62 57 60 61 65 68 77 75 82 79 77 77 78 82 82 81 87 96 91 76 74 68
51 52 61 55 61 53 52 50 38 37 36 40 38 35 30 28 33 39 49 54 61 66 68 67 70 65 58 56 56 58 60 63 68 79 83 85 85 85 87 86 86 83 90 93 92 85 80 76 74
51 53 51 61 63 65 49 40 31 33 43 46 40 38 29 26 26 32 38 46 52 57 57 65 59 57 52 51 54 55 66 70 75 80 87 87 85 87 87 92 86 93 88 84 84 86 84 80 76
51 51 53 57 55 52 47 42 37 29 37 40 40 38 32 30 28 29 32 33 36 38 45 45 41 42 46 50 52 54 63 66 73 74 79 82 86 84 74 83 83 84 85 84 89 88 84 83 82
51 52 54 54 56 57 58 46 36 33 33 32 33 32 31 28 26 25 27 27 27 30 32 34 36 41 45 45 45 52 61 70 77 81 84 83 87 87 88 92 90 89 86 89 91 87 85 88 86
45 46 48 59 52 59 59 46 36 32 33 35 35 34 37 37 30 26 26 26 28 32 36 39 44 53 57 61 61 71 78 84 85 82 82 83 88 89 93 93 89 91 91 92 91 91 87 88 82